Find Starlink 31607

NORAD ID: 59394 Int'l Des: 2024-062 Owner: SPXS Country: US Constellation: starlink operational
LEOCIRCULAR

Live Position

Loading 3D Globe...

About Starlink 31607

Description loading...

Upcoming Passes

Passes for default location (London). Set your location on the main map for personalized predictions.

Altitude History

Loading altitude history...

Two-Line Element Set

1 59394U 24062W 26126.04499428 -.00000509 00000-0 -50566-5 0 9994
2 59394 53.1616 349.1907 0001311 94.6496 265.4655 15.30185419118449
Epoch: May 6, 2026 • Age: 10 hours

Current Status

Altitude 477.7 km
Velocity 7.63 km/s
Sub-Earth Point 37.38°N, 2.77°W
Launch Date Apr 2, 2024
Age 2 years
Type internet

Technical Details

Classification Payload
Mass 730.00 kg
Dry Mass 700.00 kg
Total Mass 730.00 kg
Length 0.30 m
Diameter 4.10 m
Span 29.00 m
Shape Box + pan
Manufacturer SPXS
Bus Type Starlink V2M
Phase Status In Orbit
Owner/State SPXS/US

Most Searched